Regional Weather Roundup
Issued by NWS

Home | Current Version | Previous Version | Text Only | Print | Product List | Glossary On
Versions: 1 2 3 4 5 6 7 8 9 10 11 12 13 14 15 16 17 18 19 20 21 22 23 24 25 26 27 28 29 30 31 32 33 34 35 36 37 38 39 40 41 42 43 44 45 46 47 48 49 50
000
ASUS45 KBOU 290207
RWRCO

WEATHER ROUNDUP FOR COLORADO
NATIONAL WEATHER SERVICE DENVER/BOULDER CO
700 PM MST SUN DEC 28 2014

NOTE: "FAIR" INDICATES FEW OR NO CLOUDS BELOW 12000 FEET WITH NO
SIGNIFICANT WEATHER AND/OR OBSTRUCTIONS TO VISIBILITY.

COZ001>005-013-030-031-290300-
...NORTHWEST COLORADO...

CITY           SKY/WX    TMP DP  RH WIND       PRES   REMARKS
CRAIG          CLOUDY    23  15  71 W9        29.96R WCI  13
HAYDEN         CLOUDY    18  14  86 CALM      29.94R
MEEKER         LGT SNOW  21  18  88 S9        29.97S VSB 3/4 WCI  11
MOUNT WERNER   NOT AVBL
STEAMBOAT SPGS CLOUDY    15  12  90 CALM      29.93R
WALDEN         CLOUDY    16  10  79 SW12      29.85S WCI   3
$$

COZ006>008-011-290300-
...WEST CENTRAL VALLEYS...

CITY           SKY/WX    TMP DP  RH WIND       PRES   REMARKS
GRAND JUNCTION MOCLDY    20  15  81 CALM      30.03F
MONTROSE       PTCLDY    24  14  65 CALM      30.03R
EAGLE          CLOUDY    21  32 100 CALM      29.99R
RIFLE          CLOUDY    20  12  71 E6        30.02R WCI  12
DELTA          PTCLDY    24  10  56 E3        30.03S
NUCLA          CLOUDY    30  12  47 SW6       30.06S WCI  24
$$

COZ017>023-064>068-290300-
...SOUTHWEST COLORADO...

CITY           SKY/WX    TMP DP  RH WIND       PRES   REMARKS
DURANGO        CLEAR     11   7  84 NE5       30.05S WCI   3
CORTEZ         CLEAR     16  10  77 NE7       30.06R WCI   6
PAGOSA SPRINGS CLEAR     10   9  92 CALM      30.03S
TELLURIDE      CLOUDY    21  10  61 SW3       29.99R
WOLF CREEK PAS LGT SNOW   3   1  92 MISG      29.89S VSB 1
$$

COZ009-010-012-014-032>034-037-058>063-290300-
...CENTRAL COLORADO...

CITY           SKY/WX    TMP DP  RH WIND       PRES   REMARKS
ASPEN          MOCLDY    11   8  88 CALM      29.92F
BUENA VISTA    MOCLDY    19   6  55 N6        29.90S WCI  11
COPPER MTN     LGT SNOW   9   1  72 SW12G18   29.79S WCI  -6
BERTHOUD PASS  NOT AVBL
COTTONWOOD PAS CLOUDY    19   5  53 W20G26    29.86R WCI   4
GUNNISON       CLOUDY     7 N/A N/A CALM      30.01S
KREMMLING      LGT SNOW  19  16  86 W8        29.93R WCI   9
LEADVILLE      LGT SNOW  12   4  70 NW9       29.84S WCI   0
MONARCH PASS   CLOUDY     5   1  85 MISG      29.91R
SALIDA         MOCLDY    27   9  47 W14G21    29.99R WCI  15
SUNLIGHT       CLOUDY   N/A N/A N/A CALM      29.85S HAZE
WILKERSON PASS MOCLDY     9   5  85 W7        29.84R FOG     WCI  -3
$$

COZ069>075-290300-
...SAN LUIS VALLEY/SANGRE DE CRISTO MOUNTAINS...

CITY           SKY/WX    TMP DP  RH WIND       PRES   REMARKS
ALAMOSA        MOCLDY     3  -2  79 W5        29.98R WCI  -6
LA VETA PASS   NOT AVBL
SAGUACHE       CLOUDY     5   0  78 CALM      29.98S
$$

COZ035-036-038>040-290300-
...NORTHERN COLORADO FRONT RANGE...

CITY           SKY/WX    TMP DP  RH WIND       PRES   REMARKS
DENVER INTL AP PTCLDY    17  13  84 SE8       29.90R WCI   7
DMNS CITY PARK   N/A     22  13  69 NE2       29.92R
AURORA         PTCLDY    21  12  70 SE9       29.90R WCI  10
FRONT RANGE AP PTCLDY    21  18  86 S13       29.90S WCI   9
ERIE MUNI ARPT   N/A     11   7  85 MISG      29.92R
BOULDER MUN AP PTCLDY    18  10  73 SW7       29.92R WCI   8
CENTENNIAL     PTCLDY    24  11  57 SE6       29.89R WCI  17
BROOMFIELD     PTCLDY    19  10  68 N12       29.90R WCI   7
FORT COLLINS   PTCLDY    16  10  79 CALM      29.92S
LONGMONT       PTCLDY    12   7  82 CALM      29.95R
$$

COZ041-046-047-076>085-087-088-290300-
...PIKES PEAK/PALMER DIVIDE AND SOUTHERN FOOTHILLS...

CITY           SKY/WX    TMP DP  RH WIND       PRES   REMARKS
COLO. SPRINGS  CLEAR     30   6  36 NE14      29.89R WCI  19
A. F. ACADEMY  CLEAR     29   6  36 N6        29.87R WCI  23
ELLICOTT       NOT AVBL
FALCON         CLEAR     22  12  65 N3        29.89R
FORT CARSON    CLEAR     30   7  39 W5        29.87R WCI  25
LIMON          PTCLDY    17  12  80 N6        29.90R WCI   9
MONUMENT HILL  CLEAR     14   9  79 S3        29.87R
TRINIDAD       PTCLDY    26   8  46 W13       29.90S WCI  15
$$

COZ042>045-048>051-090-091-290300-
...NORTHEAST COLORADO...

CITY           SKY/WX    TMP DP  RH WIND       PRES   REMARKS
GREELEY ARPT   MOCLDY     3  -4  72 NW5       29.93R WCI  -6
AKRON          MOCLDY    17   9  70 S3        29.93R
BURLINGTON     PTCLDY    22  19  89 E3        29.95R
WRAY           CLEAR     18  15  86 CALM      29.97R
STERLING       MOCLDY    14  10  85 NW5       29.95R WCI   6
HOLYOKE        CLEAR     18  12  79 SW5       29.96R WCI  11
FORT MORGAN    CLOUDY    15  11  84 W5        29.95R WCI   7
$$

COZ086-089-092>099-290300-
...SOUTHEAST COLORADO...

CITY           SKY/WX    TMP DP  RH WIND       PRES   REMARKS
PUEBLO         CLEAR     30   8  39 NW9       29.90R WCI  22
LA JUNTA       CLEAR     27  20  75 SE5       29.91R WCI  22
LAMAR          CLEAR     20  15  81 CALM      29.91R
SPRINGFIELD      N/A     21  13  71 NW5       29.90R WCI  15
$$



USA.gov is the U.S. government's official web portal to all federal, state and local government web resources and services.